DW9614 Weather Reports


time (UTC)temp
C
wind
direction
speed
KPH
gust
KPH
rain 1hr
cm
rain 24hr
cm
rain mn
cm
humidity
%
barometer
mb
20260831094522 21 188 4.8 9.7 0.00 0.00 0.00 80 1014.5
20260831093025 21 188 4.8 11.3 0.00 0.00 0.00 79 1014.5
20260831091518 22 190 3.2 11.3 0.00 0.00 0.00 78 1014.4
20260831090017 22 190 6.4 11.3 0.00 0.00 0.00 77 1014.4
20260831084523 22 185 4.8 11.3 0.00 0.00 0.00 77 1014.3
20260831083014 22 186 4.8 14.5 0.00 0.00 0.00 76 1014.2
20260831081512 23 185 4.8 9.7 0.00 0.00 0.00 74 1014.2
20260831080010 23 192 4.8 9.7 0.00 0.00 0.00 73 1014.3
20260831074511 23 199 4.8 9.7 0.00 0.00 0.00 73 1014.2
20260831073009 23 205 4.8 9.7 0.00 0.00 0.00 73 1014.3
20260831071507 23 196 6.4 11.3 0.00 0.00 0.00 72 1014.4
20260831070007 23 190 6.4 12.9 0.00 0.00 0.00 73 1014.5
20260831063005 23 190 6.4 11.3 0.00 0.00 0.00 72 1014.7
20260831061503 23 188 4.8 9.7 0.00 0.00 0.00 73 1014.8
20260831060002 23 188 0.0 4.8 0.00 0.00 0.00 76 1015.0
20260831054601 23 188 0.0 0.0 0.00 0.00 0.00 77 1014.9
20260831053131 23 188 0.0 4.8 0.00 0.00 0.00 75 1015.1
20260831051604 23 190 4.8 9.7 0.00 0.00 0.00 73 1015.0
20260831050054 23 192 0.0 1.6 0.00 0.00 0.00 77 1015.0
20260831044553 23 192 0.0 0.0 0.00 0.00 0.00 76 1015.0
20260831043053 24 192 0.0 0.0 0.00 0.00 0.00 75 1015.0
20260831041556 23 192 0.0 8.0 0.00 0.00 0.00 75 1014.8
20260831040052 25 191 0.0 0.0 0.00 0.00 0.00 72 1014.9
20260831034552 25 191 0.0 6.4 0.00 0.00 0.00 68 1014.9
20260831033105 26 192 1.6 6.4 0.00 0.00 0.00 67 1014.9
20260831031552 26 193 1.6 8.0 0.00 0.00 0.00 65 1014.9
20260831030049 26 187 4.8 11.3 0.00 0.00 0.00 66 1014.7
20260831024549 26 193 4.8 8.0 0.00 0.00 0.00 64 1014.8
20260831023048 26 190 0.0 8.0 0.00 0.00 0.00 63 1014.8
20260831021548 26 191 3.2 6.4 0.00 0.00 0.00 66 1014.5
20260831020105 25 191 0.0 1.6 0.00 0.00 0.00 69 1014.6
20260831014546 26 191 0.0 4.8 0.00 0.00 0.00 65 1014.6
20260831013046 26 191 0.0 3.2 0.00 0.00 0.00 64 1014.5
20260831011547 26 191 3.2 11.3 0.00 0.00 0.00 63 1014.2
20260831010044 26 194 4.8 9.7 0.00 0.00 0.00 63 1014.3
20260831004545 26 194 0.0 4.8 0.00 0.00 0.00 64 1014.3
20260831003044 27 194 1.6 6.4 0.00 0.00 0.00 62 1014.3
20260831001543 28 194 3.2 9.7 0.00 0.00 0.00 60 1014.4
20260831000045 28 194 4.8 9.7 0.00 0.00 0.00 60 1014.5
20260830234541 28 186 3.2 11.3 0.00 0.00 0.00 61 1014.5
20260830233140 28 188 4.8 11.3 0.00 0.00 0.00 62 1014.5
20260830231540 30 180 6.4 14.5 0.00 0.00 0.00 58 1014.5
20260830230039 30 225 6.4 16.1 0.00 0.00 0.00 56 1014.5
20260830224538 30 180 6.4 16.1 0.00 0.00 0.00 56 1014.4
20260830223038 30 196 6.4 19.3 0.00 0.00 0.00 56 1014.4
20260830221541 30 221 8.0 16.1 0.00 0.00 0.00 56 1014.3
20260830220036 30 201 8.0 19.3 0.00 0.00 0.00 55 1014.4
20260830214535 30 178 8.0 17.7 0.00 0.00 0.00 57 1014.6
20260830213037 30 215 8.0 11.3 0.00 0.00 0.00 57 1014.6
20260830211532 30 190 11.3 19.3 0.00 0.00 0.00 53 1014.7
20260830210030 31 186 11.3 20.9 0.00 0.00 0.00 53 1014.9
20260830204529 31 198 6.4 17.7 0.00 0.00 0.00 51 1014.9
20260830203028 31 182 11.3 17.7 0.00 0.00 0.00 54 1015.0
20260830201526 30 172 12.9 19.3 0.00 0.00 0.00 54 1015.2
20260830200024 30 184 11.3 19.3 0.00 0.00 0.00 55 1015.4
20260830194525 30 215 11.3 19.3 0.00 0.00 0.00 53 1015.5
20260830193022 31 207 8.0 16.1 0.00 0.00 0.00 56 1015.5
20260830191521 30 178 8.0 19.3 0.00 0.00 0.00 60 1015.6
20260830190023 30 212 9.7 17.7 0.00 0.00 0.00 59 1015.7
20260830184519 30 182 9.7 17.7 0.00 0.00 0.00 61 1015.8
20260830183016 30 186 8.0 20.9 0.00 0.00 0.00 62 1016.2
20260830181615 29 177 9.7 19.3 0.00 0.00 0.00 62 1016.3
20260830180011 28 185 9.7 17.7 0.00 0.00 0.00 64 1016.4
20260830174510 28 211 8.0 16.1 0.00 0.00 0.00 64 1016.7
20260830173009 27 185 11.3 19.3 0.00 0.00 0.00 64 1016.6
20260830171508 27 209 8.0 19.3 0.00 0.00 0.00 66 1016.8
20260830170023 27 186 9.7 20.9 0.00 0.00 0.00 69 1016.8
20260830164506 27 186 9.7 17.7 0.00 0.00 0.00 68 1016.9
20260830163001 26 189 6.4 16.1 0.00 0.00 0.00 72 1017.0
20260830161608 26 194 4.8 12.9 0.00 0.00 0.00 73 1017.0
20260830160105 25 198 6.4 11.3 0.00 0.00 0.00 77 1016.9
20260830154556 25 179 3.2 11.3 0.00 0.00 0.00 81 1016.9
20260830153052 22 165 0.0 8.0 0.00 0.00 0.00 86 1016.8
20260830151603 21 171 0.0 1.6 0.00 0.00 0.00 87 1017.3
20260830150049 21 172 0.0 1.6 0.00 0.00 0.00 87 1017.4
20260830144555 21 172 0.0 1.6 0.00 0.00 0.00 85 1017.5
20260830143048 21 175 0.0 1.6 0.00 0.00 0.00 83 1017.6
20260830141542 22 188 0.0 0.0 0.00 0.00 0.00 81 1017.1
20260830140041 21 188 1.6 11.3 0.00 0.00 0.00 80 1016.7
20260830134544 21 181 6.4 12.9 0.00 0.00 0.00 80 1016.4
20260830133038 21 203 8.0 17.7 0.00 0.00 0.00 81 1016.2
20260830131544 21 206 6.4 12.9 0.00 0.00 0.00 82 1015.9
20260830130037 21 196 8.0 14.5 0.00 0.00 0.00 82 1015.9
20260830124538 20 190 8.0 16.1 0.00 0.00 0.00 82 1016.0
20260830123039 21 194 8.0 14.5 0.00 0.00 0.00 82 1015.9
20260830121536 21 199 6.4 11.3 0.00 0.00 0.00 81 1016.0
20260830120035 21 195 4.8 12.9 0.00 0.00 0.00 81 1016.2
20260830114533 21 203 6.4 11.3 0.00 0.00 0.00 81 1016.2
20260830113033 20 209 6.4 12.9 0.00 0.00 0.00 82 1016.1
20260830111534 20 210 4.8 11.3 0.00 0.00 0.00 82 1015.9
20260830110033 20 194 4.8 16.1 0.00 0.00 0.00 82 1015.6
20260830104532 20 198 6.4 12.9 0.00 0.00 0.00 82 1015.6
20260830103033 20 187 6.4 12.9 0.00 0.00 0.00 82 1015.7
20260830101530 20 188 6.4 11.3 0.00 0.00 0.00 82 1015.7